SCP
0 0 0 0 0 0 0 0 0 1 1 1 1 1 2 2 3 3 4 4 5 5 5 4 3 4 4 4 4 5 5 5 5 6 6 7 8 8 8 8 7 6 6 6
0 0 0 0 0 0 0 0 0 1 1 1 1 1 2 3 3 3 3 3 4 4 3 3 3 3 4 4 4 5 5 5 5 6 6 7 8 8 9 9 8 8 7 6
0 0 0 0 0 0 0 1 1 1 1 2 2 2 3 3 3 3 3 3 2 2 2 2 3 3 4 4 4 5 5 5 5 5 5 6 7 8 8 8 9 9 8 7
0 0 0 0 0 1 1 1 1 1 1 2 3 3 4 4 4 3 3 3 3 2 2 2 3 4 4 4 4 4 5 5 6 5 5 6 7 6 6 7 7 7 7 7
0 0 0 0 1 1 1 1 1 1 2 2 3 3 4 4 5 4 4 3 3 3 3 3 4 4 4 3 3 3 5 7 7 7 7 7 7 6 6 5 5 5 5 5
0 0 0 1 1 1 1 1 2 2 3 3 3 3 4 4 5 4 3 3 3 3 3 3 4 4 3 3 4 4 5 8 9 9 8 8 8 8 6 5 4 3 3 4
0 0 0 1 1 1 1 2 2 3 3 3 3 3 4 5 5 5 3 3 3 4 4 4 4 4 4 4 5 6 6 8 10 10 8 9 9 9 7 5 4 4 4 4
1 1 1 1 1 2 2 3 4 4 4 3 3 3 4 5 6 5 3 3 3 4 4 4 3 3 4 5 6 8 8 8 9 9 9 9 10 9 7 6 5 6 6 6
1 1 1 1 2 2 3 4 5 4 3 3 3 2 3 4 4 4 3 3 4 6 6 5 4 4 4 4 5 7 8 8 8 9 10 10 9 8 7 6 6 8 9 8
1 1 1 2 2 3 4 5 5 4 3 2 2 3 3 3 3 3 4 5 6 8 8 8 6 5 4 3 3 4 6 8 9 9 9 9 8 6 6 6 7 10 11 10
2 2 2 3 3 4 4 5 4 3 2 2 2 3 3 3 3 4 4 6 7 9 9 9 7 6 5 3 2 3 4 7 9 10 9 8 6 5 5 5 6 9 10 10
2 3 4 4 4 3 3 3 2 2 1 1 2 2 3 3 4 4 4 5 7 8 8 7 6 5 4 3 2 2 3 5 8 10 9 7 5 4 4 4 4 4 5 5
3 3 4 4 3 2 2 1 1 1 1 1 1 1 2 3 3 4 4 4 5 6 5 4 4 3 3 2 2 2 3 4 8 11 9 6 5 4 3 3 2 2 1 1
2 3 3 3 2 1 1 1 1 1 1 1 1 1 2 2 2 3 3 3 4 3 3 2 2 1 1 2 2 3 3 4 7 10 8 6 4 3 4 4 4 3 2 1
2 2 2 2 2 1 1 1 0 0 1 1 1 1 1 1 2 2 2 2 2 2 1 1 1 1 1 1 2 3 3 3 5 6 6 5 4 3 3 4 6 6 6 4
2 1 1 2 2 1 1 1 1 1 1 1 1 1 1 1 1 1 1 1 1 1 1 1 1 1 1 1 2 3 3 3 3 4 5 4 3 2 3 4 6 8 8 7
2 1 1 1 2 2 2 1 1 1 1 1 1 1 1 1 1 1 1 1 2 2 2 2 2 2 1 2 2 3 3 3 3 4 5 4 2 2 2 3 5 8 9 8
3 2 1 1 2 2 2 2 2 2 2 1 1 1 1 1 1 2 1 1 2 2 2 2 2 2 2 2 2 3 3 4 4 5 5 4 3 2 3 3 5 7 8 8
4 3 2 1 1 1 2 3 4 4 4 3 2 1 1 1 2 2 2 2 2 2 2 2 2 2 2 2 2 3 4 4 5 5 5 4 3 3 3 3 4 6 8 9
3 3 2 1 1 1 2 3 5 6 6 4 3 2 2 2 2 2 2 2 2 2 2 2 2 2 3 2 2 3 4 5 5 4 3 3 2 2 3 3 4 6 7 9
2 2 2 1 1 2 2 3 4 5 6 5 4 4 4 4 3 3 3 3 3 3 3 3 3 3 3 3 3 4 5 5 4 3 2 1 1 2 2 3 4 5 7 8
1 1 1 1 1 2 2 2 3 3 4 4 4 4 5 5 4 4 4 4 3 3 3 3 3 3 3 3 4 5 5 4 3 2 1 1 1 2 2 3 3 5 6 7
2 2 2 2 1 2 2 2 2 2 2 3 3 3 4 4 4 4 4 4 3 3 3 3 3 2 2 3 5 5 4 3 2 1 1 1 1 1 1 1 2 3 5 6
2 2 2 2 2 2 2 2 2 2 3 3 3 3 3 3 3 3 3 3 2 2 2 2 1 1 2 4 5 4 3 2 1 1 1 1 1 1 1 1 1 2 3 3
1 1 2 2 2 2 2 2 2 2 3 3 3 4 4 4 3 3 3 3 2 2 2 2 1 1 2 3 3 3 2 1 1 0 0 0 1 1 1 1 1 1 1 1
1 1 1 1 1 1 1 1 1 2 2 2 3 3 3 4 4 4 3 3 2 2 2 1 1 1 1 2 2 2 1 1 0 0 0 1 1 1 1 1 1 1 1 1
1 1 1 1 1 1 1 1 1 1 1 1 2 2 3 3 3 4 3 3 3 2 1 1 1 1 1 1 1 1 1 0 0 0 1 1 2 2 2 1 1 1 1 1
Wind_Speed
7 5 6 8 9 10 11 10 10 7 5 2 2 3 3 4 4 4 4 3 3 2 2 2 2 1 1 1 2 2 3 3 3 3 3 3 3 4 3 4 4 3 4 3
8 6 7 9 9 9 10 9 9 8 5 2 2 3 4 4 4 3 3 2 2 2 1 1 1 1 1 1 2 2 3 3 3 3 3 3 3 3 3 3 3 3 3 3
8 7 8 11 9 9 9 7 8 8 2 4 4 3 3 4 4 3 2 1 1 1 0 0 0 1 1 1 2 2 3 3 3 3 3 3 2 2 2 2 3 3 3 3
7 7 12 2 1 5 6 6 5 2 2 3 3 3 2 3 3 2 2 1 1 0 0 0 0 1 1 1 1 1 2 2 2 2 2 2 2 2 2 2 2 2 2 2
7 10 9 5 4 4 6 5 3 3 3 4 4 4 4 3 2 2 1 1 1 1 1 1 1 0 0 0 1 1 2 2 2 2 2 2 2 2 2 2 2 3 3 3
8 10 10 2 4 1 5 7 2 1 3 4 5 4 3 3 2 2 2 2 2 2 2 2 2 1 1 1 1 2 2 2 2 2 3 3 3 3 2 2 3 3 3 3
10 9 5 4 2 4 8 0 2 1 2 3 3 2 3 3 2 2 2 2 2 2 2 2 2 1 1 2 2 3 2 2 2 3 3 3 3 3 3 3 3 3 3 4
8 9 3 4 2 2 3 3 0 1 2 3 3 2 2 3 2 1 1 1 2 2 2 2 2 1 2 2 3 2 2 2 2 2 3 2 3 3 3 3 4 4 4 4
3 2 4 2 1 2 2 1 0 1 2 3 3 2 2 1 1 0 0 1 1 1 2 2 2 2 2 2 3 2 2 2 2 3 2 3 3 4 3 4 4 3 3 4
2 1 0 0 1 0 1 1 1 1 2 2 2 2 2 1 1 1 1 1 1 2 2 2 3 2 3 2 2 1 1 2 2 3 3 3 3 3 3 3 3 3 3 3
4 2 2 2 1 1 1 1 1 1 1 2 2 2 2 1 1 1 1 1 1 2 3 3 3 3 3 2 2 2 2 2 3 3 2 2 2 2 4 2 2 3 3 3
3 2 3 2 1 1 1 0 0 1 1 1 1 2 2 2 1 2 2 2 2 3 3 3 2 2 3 3 3 3 3 3 3 2 2 2 2 2 1 2 1 2 3 5
4 3 2 2 2 1 1 1 1 1 1 1 1 2 2 2 2 2 3 3 3 3 3 2 2 2 3 3 3 3 3 3 3 3 2 3 3 3 2 2 3 3 4 3
2 1 2 1 1 1 1 1 2 2 2 2 2 2 2 2 2 3 3 3 3 3 3 3 3 3 3 3 3 3 4 2 3 2 2 2 2 3 3 2 2 2 4 5
3 3 2 1 1 1 1 2 2 2 2 2 2 3 3 3 3 4 4 3 2 3 3 3 3 3 3 3 3 4 3 2 2 3 3 3 3 3 3 3 3 2 2 2
3 2 1 1 2 2 2 3 3 3 3 3 3 3 3 3 4 4 3 3 3 3 3 3 3 3 3 4 4 4 3 3 4 4 3 3 3 3 3 3 3 3 2 2
3 2 2 2 2 2 2 2 3 3 3 3 3 3 3 3 3 3 3 3 3 3 3 3 3 3 4 4 5 4 4 3 5 5 4 4 4 4 3 4 3 3 2 1
3 3 2 2 2 2 2 2 3 3 3 3 3 3 3 3 3 3 3 3 3 3 3 3 4 4 4 4 4 4 4 3 4 4 3 3 4 4 4 4 4 3 3 1
1 1 2 2 2 2 2 2 2 2 2 2 2 2 3 3 3 3 3 3 4 4 4 4 4 5 5 4 4 4 4 4 3 3 3 3 4 4 4 4 4 3 3 2
1 1 1 1 1 1 1 1 1 1 1 1 2 2 2 2 2 3 3 3 3 3 4 4 4 4 4 4 5 4 4 4 4 3 3 3 3 3 3 3 3 3 2 2
2 2 2 2 2 2 2 2 1 1 2 2 2 2 3 3 2 3 3 3 3 3 4 5 4 3 3 3 5 4 4 3 3 3 3 3 3 3 3 3 3 3 2 2
1 1 1 2 2 2 3 2 2 2 2 2 2 2 3 3 3 3 3 3 3 3 4 3 2 2 3 5 4 3 3 3 3 3 2 2 3 3 3 3 3 3 2 2
1 1 1 1 2 2 2 2 2 2 2 2 3 3 3 3 3 3 2 2 2 3 3 2 3 3 3 4 3 3 3 3 3 2 2 1 2 2 2 2 3 3 3 3
1 1 1 1 1 1 2 2 2 2 2 2 2 3 3 3 2 2 2 1 2 3 2 2 2 2 4 3 2 2 2 2 2 2 1 1 1 1 2 2 2 2 2 3
1 1 1 1 1 1 1 1 1 1 2 1 2 2 2 2 2 2 2 2 2 2 1 1 0 2 3 2 2 1 1 1 1 1 1 1 1 1 1 1 2 2 2 2
0 0 1 1 2 1 1 1 1 1 1 2 2 2 2 2 2 1 1 1 2 2 2 1 1 1 1 1 1 1 1 0 0 0 1 1 1 2 2 2 2 2 2 2
1 0 0 0 1 1 1 1 2 2 2 2 2 2 2 2 2 2 2 1 1 1 2 2 1 1 2 2 2 1 1 1 1 1 1 2 2 2 2 2 2 2 2 2
Wind_Direction
260 259 237 232 227 225 238 253 259 255 247 223 145 145 153 146 141 137 128 120 108 99 92 93 111 127 147 171 188 190 189 197 205 217 218 220 223 220 219 226 232 232 241 240
235 234 232 238 236 229 233 243 248 253 248 60 97 135 149 150 152 145 141 134 123 113 107 103 119 152 181 192 194 205 210 210 212 223 224 223 222 221 224 230 244 245 247 242
232 217 232 230 226 227 225 235 249 250 226 136 150 153 164 162 160 152 143 132 132 138 133 162 238 208 220 224 217 215 218 219 218 221 227 232 234 225 230 237 238 237 240 235
235 221 236 202 124 233 233 232 243 263 133 144 147 141 149 152 146 129 108 79 59 34 324 261 263 234 220 207 214 226 233 240 233 226 230 233 231 230 237 245 245 245 244 237
235 235 234 186 189 218 227 224 231 230 173 147 141 151 147 113 100 96 76 47 33 13 11 16 1 22 201 244 222 232 241 244 244 236 228 224 229 234 231 235 245 248 242 243
235 248 246 178 122 243 245 222 148 212 178 173 191 226 139 104 88 71 59 49 37 33 29 27 359 339 244 255 257 259 258 257 244 236 236 236 232 237 237 235 240 249 249 253
235 242 244 73 130 212 233 48 94 198 183 191 210 347 83 114 94 71 60 54 43 31 22 15 354 337 268 266 270 280 280 266 255 241 240 240 237 235 237 237 235 245 250 251
235 239 215 76 181 244 11 23 104 151 166 167 135 108 111 120 121 111 77 60 39 23 7 349 343 335 312 306 309 299 286 273 264 256 256 242 240 243 241 244 238 235 243 252
280 340 48 36 17 23 354 337 74 158 162 166 166 161 149 145 145 148 41 23 7 356 344 328 325 324 321 335 336 322 304 289 288 270 262 259 247 239 239 240 253 253 250 255
237 204 287 288 299 341 346 344 28 151 164 174 182 182 192 203 214 241 284 305 320 320 319 328 327 322 316 322 320 297 289 293 282 271 260 258 262 251 248 248 255 264 264 265
233 248 244 219 272 322 19 33 78 155 178 199 192 199 220 243 253 269 277 287 293 311 316 318 320 317 319 324 309 290 282 277 272 266 263 260 257 276 271 269 285 273 276 275
257 247 263 284 298 279 234 195 164 192 195 211 226 232 253 272 284 277 275 284 288 296 299 309 310 310 316 313 298 284 273 278 281 281 269 261 251 242 326 277 223 240 273 293
287 289 291 301 297 285 266 257 243 242 249 265 264 269 274 275 274 273 275 275 279 280 282 290 293 299 304 306 297 284 283 287 287 289 279 265 262 264 254 212 207 223 226 248
298 277 253 251 265 278 277 278 275 277 277 275 272 266 268 270 274 276 278 278 279 277 279 281 283 293 305 300 283 271 270 266 274 276 276 275 275 272 269 269 250 230 206 201
283 267 266 293 271 268 262 257 256 260 265 267 267 262 262 264 266 271 278 273 263 261 273 285 292 298 302 287 272 267 267 270 270 275 270 268 274 273 269 265 267 272 259 173
285 266 243 255 270 268 257 256 260 260 256 257 263 262 261 261 266 273 273 266 257 263 270 274 279 290 289 279 271 259 253 264 269 266 264 261 261 263 261 258 261 269 274 282
241 235 239 259 270 276 278 280 277 268 259 258 265 267 261 260 261 265 272 276 271 270 273 274 278 283 279 272 266 261 254 233 230 252 258 263 265 264 266 269 269 271 275 284
246 254 267 268 266 278 288 287 281 271 264 263 263 258 251 253 260 267 273 276 273 274 278 279 280 278 273 270 268 270 263 256 248 253 259 260 265 261 260 262 265 269 279 244
246 269 286 296 293 277 282 293 294 287 275 265 263 263 265 270 274 274 275 274 272 277 288 288 280 273 274 277 272 255 263 263 258 255 256 252 255 261 266 270 271 274 279 268
95 34 7 14 360 334 342 353 338 310 300 283 278 281 282 288 291 284 277 276 294 305 305 298 279 269 268 265 264 255 252 254 256 258 257 259 264 270 271 271 275 279 282 278
86 66 54 42 28 15 6 2 356 338 330 316 304 301 303 305 296 287 279 280 297 303 296 278 270 274 272 275 249 252 252 256 258 258 261 266 272 275 279 284 288 289 292 291
71 55 43 32 27 22 17 8 354 341 341 330 318 312 305 289 277 277 280 294 301 310 291 283 286 297 287 272 255 257 256 258 263 260 257 265 271 278 287 296 295 299 306 311
62 53 39 33 29 23 14 4 352 342 333 323 319 314 304 298 291 283 283 304 306 312 295 312 341 341 292 260 259 259 260 260 261 262 264 279 297 299 300 304 312 321 325 323
72 51 42 39 34 18 2 358 350 337 317 301 304 307 295 286 287 297 307 348 345 326 319 11 2 326 276 270 274 263 259 259 259 268 287 299 301 303 315 321 327 339 339 332
75 55 40 23 340 328 334 318 311 308 299 326 341 334 315 319 324 331 334 352 2 315 312 78 216 270 269 292 296 297 286 313 322 303 318 343 333 350 357 337 330 336 342 348
109 5 28 340 330 309 290 286 289 308 322 329 338 341 350 359 343 329 331 342 347 337 328 339 342 268 297 321 328 332 331 47 125 297 15 359 346 358 5 359 360 2 2 4
177 150 203 295 300 301 303 304 309 316 324 328 338 358 4 2 358 360 356 3 11 350 345 342 336 326 326 338 344 344 349 3 2 1 15 14 12 13 15 9 358 357 356 7